[[{"header":{"parameterUnit":"m.s-1","parameterCategory":1,"la1":30.2991,"la2":30.254,"lo1":-89.0895,"lo2":-89.0444,"dy":0.0017,"dx":0.0017,"nx":28,"ny":28,"refTime":"2024-05-11T03:00:00:Z","depth":0,"parameterNumber":2,"parameterNumberName":"U-component_of_WINDS"},"data":[0,0,0,0,0,0,0,0,0,0,0,0,0,0,0,0,0,0,0,0,0,0,0,0,0,0,0,0,0,0,0,0,0,0,0,0,0,0,0,0,0,0,0,0,0,0,0,0,0,0,0,0,0,0,0,0,0,0,-5.0584,-5.0584,0,-5.066,-5.0661,-5.0662,-5.0506,-5.0501,-5.0496,-5.0491,-5.0572,-5.0579,-5.0586,0,0,0,0,0,0,0,0,0,0,0,0,0,-5.0303,-5.0309,-5.0584,-5.0584,-5.0585,-5.066,-5.0661,-5.0662,-5.0507,-5.0501,-5.0494,-5.0489,-5.057,-5.0578,-5.0586,0,0,0,0,0,0,0,0,0,0,0,0,0,-5.0407,-5.0311,-5.0583,-5.0517,-5.0512,-5.066,-5.0661,-5.0663,-5.0508,-5.05,-5.0493,-5.0486,-5.0567,-5.0577,-5.0588,-5.0805,0,0,-5.0619,-5.0624,0,0,0,0,0,0,0,0,-5.0401,-5.0417,-5.0526,-5.0522,-5.0516,-5.0566,-5.0592,-5.0711,-5.051,-5.051,-5.0491,-5.0482,-5.0576,-5.0586,-5.0617,-5.0809,-5.0812,-5.062,-5.0627,-5.0631,-5.0634,0,0,0,0,0,0,0,-5.0394,-5.0413,-5.0614,-5.0527,-5.0522,-5.0483,-5.049,-5.0614,-5.0585,-5.0509,-5.0498,-5.0509,-5.0572,-5.0607,-5.0618,-5.0814,-5.062,-5.0629,-5.0636,-5.064,-5.1187,-5.1194,0,0,0,0,0,0,-5.0395,-5.0408,-5.0611,-5.0616,-5.0438,-5.0495,-5.0502,-5.0558,-5.0583,-5.058,-5.0515,-5.0501,-5.0593,-5.0606,-5.062,-5.0875,-5.0631,-5.0641,-5.0647,-5.1178,-5.1188,-5.1197,0,0,0,0,0,0,-5.039,-5.0415,-5.0608,-5.0509,-5.0531,-5.0508,-5.0572,-5.0563,-5.0598,-5.0588,-5.0582,-5.0556,-5.0588,-5.0605,-5.076,-5.0876,-5.0645,-5.0655,-5.1169,-5.1181,-5.1193,-5.1388,0,0,0,0,0,0,-5.0382,-5.0414,-5.0496,-5.0512,-5.0537,-5.0747,-5.0579,-5.057,-5.0616,-5.0598,-5.0625,-5.0622,-5.0583,-5.0745,-5.077,-5.0886,-5.0663,-5.1158,-5.1174,-5.1189,-5.1371,-5.1406,-5.1435,0,0,0,0,0,-5.0373,-5.0549,-5.0501,-5.0526,-5.0639,-5.0754,-5.0768,-5.0719,-5.0626,-5.0708,-5.0702,-5.0621,-5.0859,-5.0762,-5.0789,-5.091,-5.1151,-5.117,-5.1188,-5.1357,-5.1399,-5.1434,0,0,0,0,0,0,-5.0548,-5.055,-5.0497,-5.0683,-5.072,-5.0727,-5.083,-5.0765,-5.083,-5.0811,-5.0747,-5.0755,-5.0922,-5.0931,-5.0823,-5.1121,-5.0989,-5.1014,-5.1108,-5.1148,-5.118,-5.1174,-5.0672,0,0,0,0,0,-5.0608,-5.0701,-5.0698,-5.0862,-5.0883,-5.0854,-5.0902,-5.0861,-5.0897,-5.0911,-5.0916,-5.0955,-5.1037,-5.1093,-5.1169,-5.1372,-5.1375,-5.1468,-5.15,-5.1526,-5.1549,-5.1655,-5.1696,-5.1259,-5.1258,-5.1258,0,0,-5.0734,-5.0746,-5.0809,-5.0898,-5.0921,-5.1018,-5.0868,-5.0978,-5.1049,-5.0928,-5.1073,-5.1079,-5.1117,-5.1296,-5.1376,-5.1309,-5.167,-5.155,-5.1571,-5.1579,-5.1679,-5.172,-5.1757,-5.1271,-5.1269,-5.1267,0,0,-5.1011,-5.1031,-5.1169,-5.1195,-5.1232,-5.1211,-5.1245,-5.1263,-5.1261,-5.1406,-5.1317,-5.1401,-5.1546,-5.1577,-5.1611,-5.19,-5.1828,-5.1927,-5.2094,-5.2199,-5.2233,-5.2263,-5.2365,-5.2403,-5.1949,-5.195,-5.195,0,-5.1163,-5.1305,-5.1249,-5.1364,-5.1406,-5.13,-5.1439,-5.1468,-5.1529,-5.156,-5.1485,-5.1663,-5.1682,-5.1866,-5.1936,-5.1968,-5.2004,-5.1923,-5.2232,-5.2262,-5.229,-5.2386,-5.2425,-5.1961,-5.196,-5.1959,-5.1958,0,-5.1489,-5.159,-5.1697,-5.1757,-5.181,-5.1938,-5.1901,-5.1962,-5.1916,-5.1904,-5.2052,-5.2071,-5.2148,-5.2189,-5.2146,-5.2367,-5.2325,-5.2243,-5.2109,-5.2344,-5.2433,-5.247,-5.1978,-5.1974,-5.197,-5.1968,0,0,-5.1879,-5.1905,-5.1945,-5.197,-5.2003,-5.208,-5.2202,-5.2277,-5.233,-5.2376,-5.2476,-5.2601,-5.2524,-5.2564,-5.2524,-5.2616,-5.2842,-5.2522,-5.2522,-5.258,-5.3086,-5.3146,-5.319,-5.2795,-5.2802,-5.2807,-5.3082,0,-5.2153,-5.2362,-5.2315,-5.2522,-5.2613,-5.2513,-5.262,-5.2652,-5.2643,-5.272,-5.2711,-5.2799,-5.2693,-5.2715,-5.2802,-5.2796,-5.2943,-5.2776,-5.2888,-5.2892,-5.288,-5.3237,-5.3302,-5.356,-5.3117,-5.3123,-5.3127,0,-5.2501,-5.2558,-5.2774,-5.279,-5.2827,-5.2923,-5.2987,-5.3062,-5.3096,-5.3083,-5.3127,-5.3069,-5.319,-5.3056,-5.3222,-5.3109,-5.3152,-5.3156,-5.3165,-5.3173,-5.3023,-5.3253,-5.3642,-5.368,-5.3182,-5.3177,-5.3173,0,-5.2762,-5.2893,-5.3038,-5.3063,-5.3087,-5.3157,-5.317,-5.3196,-5.3244,-5.33,-5.333,-5.3401,-5.3439,-5.3495,-5.3457,-5.3363,-5.363,-5.3492,-5.3622,-5.3623,-5.3682,-5.3678,-5.4081,-5.3712,-5.3712,-5.3711,-5.371,0,-5.3072,-5.3208,-5.3155,-5.3245,-5.3394,-5.3338,-5.3487,-5.3489,-5.3513,-5.3601,-5.352,-5.3605,-5.355,-5.363,-5.3602,-5.3743,-5.3761,-5.3754,-5.3745,-5.3761,-5.3762,-5.3787,-5.3768,-5.3721,-5.3719,-5.3717,-5.3715,0,-5.3388,-5.3359,-5.3511,-5.352,-5.3526,-5.3635,-5.3643,-5.3726,-5.3711,-5.3824,-5.3847,-5.3825,-5.3915,-5.3883,-5.398,-5.3961,-5.414,-5.4108,-5.4129,-5.412,-5.4251,-5.4239,-5.4683,-5.4738,-5.4336,-5.4339,-5.4343,0,-5.3587,-5.3689,-5.3709,-5.3762,-5.378,-5.3867,-5.3914,-5.3863,-5.3916,-5.3962,-5.404,-5.4123,-5.4186,-5.4335,-5.4328,-5.4402,-5.437,-5.4521,-5.4381,-5.4393,-5.4371,-5.4364,-5.4374,-5.4549,-5.4553,-5.4557,-5.456,0,-5.3943,-5.3924,-5.3995,-5.4062,-5.4121,-5.4171,-5.4214,-5.4262,-5.4214,-5.4278,-5.4368,-5.4418,-5.4516,-5.4599,-5.4665,-5.4678,-5.4612,-5.4605,-5.4638,-5.4655,-5.4662,-5.4658,-5.4203,-5.4594,-5.4591,-5.4588,-5.4587,-5.4585,-5.4206,-5.4291,-5.4318,-5.44,-5.4427,-5.4469,-5.4547,-5.4542,-5.4616,-5.4691,-5.4657,-5.4762,-5.4793,-5.4874,-5.4898,-5.4979,-5.492,-5.497,-5.4982,-5.4994,-5.5011,-5.465,-5.4991,-5.499,-5.4989,-5.4988,-5.4987,0,-5.4556,-5.4568,-5.4644,-5.4707,-5.4771,-5.4702,-5.4746,-5.4805,-5.4898,-5.4932,-5.4995,-5.5099,-5.518,-5.5179,-5.5253,-5.5319,-5.529,-5.534,-5.5334,-5.5338,-5.5059,-5.5022,-5.5362,-5.5362,-5.5362,-5.5361,-5.5361,-5.5361,-5.4746,-5.4885,-5.4869,-5.5022,-5.5033,-5.5134,-5.5165,-5.5203,-5.523,-5.5349,-5.5415,-5.5413,-5.5433,-5.5508,-5.5579,-5.5577,-5.5607,-5.5669,-5.5655,-5.5395,-5.5358,-5.5322,-5.5287,-5.5676,-5.5677,-5.5926,-5.5929,-5.5931]},{"header":{"parameterUnit":"m.s-1","parameterCategory":1,"la1":30.2991,"la2":30.254,"lo1":-89.0895,"lo2":-89.0444,"dy":0.0017,"dx":0.0017,"nx":28,"ny":28,"refTime":"2024-05-11T03:00:00:Z","depth":0,"parameterNumber":3,"parameterNumberName":"V-component_of_WINDS"},"data":[0,0,0,0,0,0,0,0,0,0,0,0,0,0,0,0,0,0,0,0,0,0,0,0,0,0,0,0,0,0,0,0,0,0,0,0,0,0,0,0,0,0,0,0,0,0,0,0,0,0,0,0,0,0,0,0,0,0,-1.0022,-1.0022,0,-1.0078,-1.0079,-1.008,-1.0117,-1.0118,-1.0118,-1.0118,-1.0176,-1.0177,-1.0178,0,0,0,0,0,0,0,0,0,0,0,0,0,-0.9944,-0.9945,-1.0022,-1.0022,-1.0023,-1.0078,-1.0079,-1.008,-1.0117,-1.0118,-1.0118,-1.0118,-1.0175,-1.0177,-1.0178,0,0,0,0,0,0,0,0,0,0,0,0,0,-0.9987,-0.9945,-1.0022,-1.0049,-1.0052,-1.0078,-1.0079,-1.008,-1.0117,-1.0118,-1.0118,-1.0119,-1.0175,-1.0177,-1.0179,-1.0183,0,0,-1.0184,-1.0185,0,0,0,0,0,0,0,0,-0.9984,-0.999,-1.0044,-1.0047,-1.005,-1.0091,-1.0073,-1.0114,-1.0117,-1.0092,-1.0118,-1.0119,-1.0147,-1.0151,-1.0161,-1.0185,-1.0188,-1.0185,-1.0186,-1.0187,-1.0187,0,0,0,0,0,0,0,-0.9981,-0.9987,-1.0044,-1.0045,-1.0048,-1.0057,-1.0064,-1.0081,-1.0117,-1.0095,-1.0097,-1.0104,-1.0149,-1.0159,-1.0163,-1.0189,-1.0185,-1.0186,-1.0187,-1.0188,-1.0216,-1.0215,0,0,0,0,0,0,-0.9974,-0.9985,-1.0042,-1.0046,-1.0017,-1.0058,-1.0065,-1.0078,-1.0117,-1.0123,-1.0103,-1.0105,-1.0156,-1.0161,-1.0165,-1.0171,-1.0187,-1.0188,-1.019,-1.0216,-1.0216,-1.0215,0,0,0,0,0,0,-0.9972,-0.9979,-1.004,-1.0016,-1.0024,-1.0059,-1.0072,-1.0079,-1.0089,-1.0123,-1.013,-1.0107,-1.0156,-1.0162,-1.0177,-1.0173,-1.0189,-1.0191,-1.0217,-1.0216,-1.0215,-1.0183,0,0,0,0,0,0,-0.997,-0.9978,-0.9981,-1.0016,-1.0026,-1.0052,-1.0072,-1.0079,-1.0092,-1.0095,-1.0129,-1.0135,-1.0157,-1.0174,-1.0179,-1.0176,-1.0193,-1.0217,-1.0216,-1.0216,-1.0184,-1.0181,-1.0178,0,0,0,0,0,-0.9967,-0.997,-0.9981,-0.9988,-1.003,-1.0052,-1.0057,-1.0083,-1.0092,-1.0094,-1.0116,-1.0134,-1.0173,-1.0175,-1.0181,-1.0179,-1.0218,-1.0217,-1.0216,-1.0186,-1.0182,-1.0178,0,0,0,0,0,0,-0.9935,-0.9975,-0.9988,-1.0002,-1.0023,-1.0058,-1.0062,-1.0079,-1.0098,-1.01,-1.013,-1.0138,-1.0149,-1.0166,-1.0168,-1.0183,-1.0197,-1.0197,-1.0172,-1.0169,-1.0166,-1.0161,-1.0194,0,0,0,0,0,-0.9929,-0.9944,-0.9979,-0.9988,-0.9998,-1.0028,-1.0039,-1.0056,-1.0079,-1.0088,-1.0111,-1.0133,-1.0149,-1.016,-1.0178,-1.0187,-1.0193,-1.0187,-1.0184,-1.0182,-1.0181,-1.0185,-1.0182,-1.0212,-1.0212,-1.0212,0,0,-0.9918,-0.9942,-0.995,-0.9982,-1.0,-1.0014,-1.0035,-1.005,-1.006,-1.0091,-1.0106,-1.0123,-1.0149,-1.016,-1.0166,-1.0174,-1.0174,-1.018,-1.0178,-1.0179,-1.0184,-1.0181,-1.0178,-1.0211,-1.0211,-1.0212,0,0,-0.9905,-0.9925,-0.9934,-0.9951,-0.9978,-0.9998,-0.9999,-1.0031,-1.0044,-1.0059,-1.0082,-1.0094,-1.0123,-1.0139,-1.0152,-1.0141,-1.0157,-1.0145,-1.013,-1.0132,-1.013,-1.0128,-1.0123,-1.012,-1.0145,-1.0145,-1.0145,0,-0.9888,-0.991,-0.9936,-0.9949,-0.9961,-0.9988,-0.9996,-1.0012,-1.0043,-1.0051,-1.0059,-1.0094,-1.0113,-1.0128,-1.0125,-1.0134,-1.0136,-1.0142,-1.0128,-1.0127,-1.0125,-1.012,-1.0118,-1.0143,-1.0143,-1.0144,-1.0144,0,-0.9886,-0.9901,-0.9905,-0.9933,-0.9946,-0.9956,-0.9983,-0.9993,-1.0008,-1.0026,-1.004,-1.0064,-1.0086,-1.009,-1.0106,-1.0106,-1.011,-1.0123,-1.0137,-1.012,-1.0116,-1.0114,-1.0141,-1.0141,-1.0142,-1.0142,0,0,-0.9857,-0.9897,-0.9898,-0.991,-0.994,-0.9952,-0.9962,-0.9982,-0.9989,-1.0009,-1.0017,-1.004,-1.0051,-1.0064,-1.0082,-1.0085,-1.0072,-1.0097,-1.0098,-1.0091,-1.0071,-1.006,-1.0058,-1.0083,-1.0083,-1.0082,-1.0068,0,-0.9847,-0.9868,-0.989,-0.9902,-0.9914,-0.9939,-0.9947,-0.9966,-0.9982,-0.9994,-1.0013,-1.0027,-1.0042,-1.005,-1.0053,-1.0073,-1.0068,-1.0074,-1.009,-1.009,-1.0082,-1.0056,-1.0046,-1.0031,-1.0067,-1.0067,-1.0066,0,-0.984,-0.9857,-0.987,-0.9896,-0.9902,-0.991,-0.9928,-0.994,-0.9961,-0.9972,-0.9986,-1.0004,-1.0014,-1.0027,-1.004,-1.0044,-1.0051,-1.0061,-1.0061,-1.0063,-1.0077,-1.0056,-1.0027,-1.0025,-1.0064,-1.0065,-1.0065,0,-0.9816,-0.9842,-0.9852,-0.9862,-0.9893,-0.9897,-0.991,-0.9931,-0.9941,-0.9957,-0.9963,-0.9981,-0.999,-1.0002,-1.0024,-1.0032,-1.0034,-1.005,-1.0043,-1.0043,-1.0043,-1.0043,-1.0014,-1.0049,-1.0049,-1.0049,-1.0049,0,-0.9803,-0.9809,-0.9841,-0.9847,-0.9854,-0.9879,-0.9885,-0.99,-0.9918,-0.9927,-0.9949,-0.9956,-0.9985,-0.9995,-1.0012,-1.0019,-1.0024,-1.0032,-1.0037,-1.003,-1.0029,-1.0035,-1.0037,-1.0048,-1.0048,-1.0049,-1.0049,0,-0.9777,-0.9799,-0.9811,-0.9839,-0.9845,-0.9849,-0.9872,-0.9878,-0.9895,-0.9905,-0.9909,-0.9935,-0.9948,-0.997,-0.999,-1.0001,-1.0005,-1.0013,-0.9998,-1.0,-0.9992,-0.9992,-0.9966,-0.9963,-1.0,-1.0,-1.0,0,-0.9768,-0.9773,-0.98,-0.9807,-0.9819,-0.983,-0.9839,-0.9863,-0.9872,-0.9893,-0.9896,-0.9911,-0.9924,-0.9943,-0.9963,-0.9977,-0.9985,-0.9975,-0.9988,-0.998,-0.9983,-0.9983,-0.9982,-0.9972,-0.9972,-0.9971,-0.9971,0,-0.9748,-0.9758,-0.977,-0.9786,-0.9796,-0.9809,-0.9824,-0.9828,-0.9855,-0.9863,-0.9876,-0.9886,-0.9904,-0.9918,-0.9934,-0.9947,-0.9963,-0.9966,-0.9965,-0.9959,-0.9949,-0.9953,-0.9989,-0.9967,-0.9967,-0.9968,-0.9968,-0.9968,-0.973,-0.9734,-0.9753,-0.9766,-0.9778,-0.979,-0.9797,-0.9813,-0.9824,-0.984,-0.9853,-0.9864,-0.9882,-0.9906,-0.9917,-0.9925,-0.9933,-0.9932,-0.9932,-0.9931,-0.9927,-0.9948,-0.9929,-0.9929,-0.9929,-0.9929,-0.9929,0,-0.971,-0.9723,-0.9734,-0.9752,-0.9761,-0.9774,-0.979,-0.9796,-0.9806,-0.982,-0.9832,-0.9845,-0.9857,-0.9877,-0.989,-0.9893,-0.99,-0.9895,-0.9895,-0.9897,-0.9921,-0.992,-0.9889,-0.9889,-0.9889,-0.9889,-0.9889,-0.9889,-0.9701,-0.9709,-0.972,-0.9733,-0.9745,-0.9756,-0.9763,-0.9774,-0.9785,-0.9799,-0.9808,-0.9821,-0.9837,-0.9851,-0.9862,-0.9867,-0.9871,-0.9863,-0.9871,-0.9892,-0.9896,-0.99,-0.9899,-0.9864,-0.9864,-0.9847,-0.9846,-0.9846]}]]